カタログに戻る

METEOR 2-8 DEB

LostPO
NORAD 36327·DEBRIS·🇷🇺 Russia

打ち上げ Mar 25, 1982 から Plesetsk Cosmodrome

Loading…

次のパス (今後24時間)

TLE

古いSource: Space-Track

元期: Oct 13, 2024, 01:22 UTC

1 36327U 82025M   24287.05737402  .00014444  00000-0  77400-2 0  9996
2 36327  82.5003  51.6770 0007817  48.6546 311.5302 14.12921146 50879

AllMySatでMETEOR 2-8 DEBをリアルタイム追跡

Download on the App Store